Date String (YYYY-MM-DD hh:mm:ss) UTC,Instrument flags,Ambient pressure (hPa),Sample flow (lpm),Bypass flow (lpm),Sample temperature (°C),Ambient temperature (°C),ASC tube jacket temperature (°C),LED temperature (°C),Box temperature (°C),Sample RH (%),Span deviation,Mass concentration (μg/m³),Mass concentration (μg/m³),Mass concentration (μg/m³)
DateTimeUTC,F1_M11,P_M11,Q1_M11,Q2_M11,T1_M11,T2_M11,T3_M11,T4_M11,T5_M11,U1_M11,ZSPAN_M11,X0_M11,X2_M11,X1_M11
2021-08-24 12:00:00,,0827.4,5.00,0.00,29.3,27.9,00.0,38.5,30.9,13.7,0000.0,0005.04,0003.17,0002.82
2021-08-24 12:01:00,,0827.4,5.00,0.00,29.3,28.1,00.0,38.5,30.9,13.8,0000.0,0005.07,0003.18,0002.82
2021-08-24 12:02:00,,0827.4,5.01,0.00,29.3,28.1,00.0,38.5,31.0,13.9,0000.0,0005.12,0003.20,0002.83
2021-08-24 12:03:00,,0827.4,4.98,0.00,29.3,28.2,00.0,38.5,31.0,13.9,0000.0,0005.22,0003.23,0002.85
2021-08-24 12:04:00,,0827.4,5.01,0.00,29.3,28.3,00.0,38.5,31.0,14.0,0000.0,0005.36,0003.26,0002.89
2021-08-24 12:05:00,,0827.5,5.00,0.00,29.3,28.4,00.0,38.5,31.1,14.0,0000.0,0005.44,0003.30,0002.93
2021-08-24 12:06:00,,0827.5,5.00,0.00,29.4,28.4,00.0,38.5,31.1,14.0,0000.0,0005.70,0003.32,0002.98
2021-08-24 12:07:00,,0827.5,5.00,0.00,29.4,28.5,00.0,38.5,31.1,14.0,0000.0,0006.67,0003.34,0003.02
2021-08-24 12:08:00,,0827.6,4.99,0.00,29.4,28.5,00.0,38.5,31.1,14.0,0000.0,0007.26,0003.41,0003.05
2021-08-24 12:09:00,,0827.5,5.00,0.00,29.4,28.6,00.0,38.5,31.2,14.0,0000.0,0007.65,0003.44,0003.08
2021-08-24 12:10:00,,0827.5,5.00,0.00,29.4,28.6,00.0,38.5,31.2,14.0,0000.0,0008.00,0003.47,0003.08
2021-08-24 12:11:00,,0827.6,5.01,0.00,29.5,28.7,00.0,38.5,31.2,14.0,0000.0,0009.11,0003.49,0003.10
2021-08-24 12:12:00,,0827.6,4.98,0.00,29.5,28.7,00.0,38.6,31.3,13.8,0000.0,0008.95,0003.46,0003.09
2021-08-24 12:13:00,,0827.5,4.99,0.00,29.5,28.7,00.0,38.6,31.3,13.6,0000.0,0008.91,0003.45,0003.06
2021-08-24 12:14:00,,0827.5,5.01,0.00,29.5,28.7,00.0,38.6,31.3,13.7,0000.0,0008.86,0003.41,0003.05
2021-08-24 12:15:00,,0827.5,4.99,0.00,29.5,28.7,00.0,38.6,31.2,13.7,0000.0,0008.80,0003.38,0003.02
2021-08-24 12:16:00,,0827.5,5.00,0.00,29.5,28.7,00.0,38.6,31.2,13.6,0000.0,0008.73,0003.34,0002.98
2021-08-24 12:17:00,,0827.5,4.99,0.00,29.5,28.7,00.0,38.6,31.2,13.6,0000.0,0008.76,0003.32,0002.95
2021-08-24 12:18:00,,0827.6,5.01,0.00,29.5,28.7,00.0,38.6,31.2,13.6,0000.0,0008.18,0003.29,0002.92
2021-08-24 12:19:00,,0827.7,4.99,0.00,29.5,28.8,00.0,38.6,31.2,13.5,0000.0,0007.94,0003.26,0002.92
2021-08-24 12:20:00,,0827.5,5.01,0.00,29.5,28.8,00.0,38.6,31.3,13.6,0000.0,0008.38,0003.25,0002.91
2021-08-24 12:21:00,,0827.6,4.99,0.00,29.5,28.8,00.0,38.6,31.3,13.6,0000.0,0007.87,0003.21,0002.91
2021-08-24 12:22:00,,0827.6,5.01,0.00,29.6,28.8,00.0,38.6,31.3,13.7,0000.0,0006.04,0003.19,0002.90
2021-08-24 12:23:00,,0827.7,5.00,0.00,29.6,28.9,00.0,38.7,31.3,13.7,0000.0,0006.11,0003.20,0002.90
2021-08-24 12:24:00,,0827.7,5.01,0.00,29.6,28.9,00.0,38.7,31.4,13.6,0000.0,0006.15,0003.21,0002.92
2021-08-24 12:25:00,,0827.7,5.00,0.00,29.6,28.9,00.0,38.7,31.3,13.7,0000.0,0006.14,0003.22,0002.94
2021-08-24 12:26:00,,0827.7,5.01,0.00,29.6,28.9,00.0,38.7,31.3,13.7,0000.0,0006.34,0003.25,0002.95
2021-08-24 12:27:00,,0827.7,4.99,0.00,29.6,28.9,00.0,38.7,31.4,13.7,0000.0,0006.45,0003.26,0002.95
2021-08-24 12:28:00,,0827.8,4.99,0.00,29.6,28.8,00.0,38.7,31.4,13.6,0000.0,0005.98,0003.25,0002.94
2021-08-24 12:29:00,,0827.7,5.02,0.00,29.6,28.8,00.0,38.7,31.3,13.5,0000.0,0005.92,0003.27,0002.96
2021-08-24 12:30:00,,0827.7,4.99,0.00,29.6,28.8,00.0,38.7,31.3,13.5,0000.0,0006.12,0003.26,0002.94
2021-08-24 12:31:00,,0827.7,5.01,0.00,29.6,28.8,00.0,38.7,31.3,13.3,0000.0,0005.67,0003.23,0002.94
2021-08-24 12:32:00,,0827.7,5.00,0.00,29.6,28.9,00.0,38.7,31.3,13.3,0000.0,0005.88,0003.24,0002.93
2021-08-24 12:33:00,,0827.8,4.99,0.00,29.6,28.9,00.0,38.7,31.3,13.1,0000.0,0006.45,0003.21,0002.90
2021-08-24 12:34:00,,0827.7,4.99,0.00,29.6,28.8,00.0,38.7,31.3,13.0,0000.0,0006.42,0003.19,0002.89
2021-08-24 12:35:00,,0827.7,5.02,0.00,29.6,28.8,00.0,38.7,31.3,13.0,0000.0,0006.55,0003.19,0002.88
2021-08-24 12:36:00,,0827.8,4.98,0.00,29.6,28.8,00.0,38.7,31.3,13.0,0000.0,0006.74,0003.21,0002.88
2021-08-24 12:37:00,,0827.8,5.01,0.00,29.6,28.8,00.0,38.7,31.3,13.0,0000.0,0006.59,0003.19,0002.87
2021-08-24 12:38:00,,0827.8,5.00,0.00,29.6,28.8,00.0,38.7,31.3,13.2,0000.0,0007.49,0003.20,0002.87
2021-08-24 12:39:00,,0827.7,5.01,0.00,29.6,28.8,00.0,38.7,31.3,13.2,0000.0,0007.59,0003.21,0002.88
2021-08-24 12:40:00,,0827.7,5.00,0.00,29.6,28.9,00.0,38.7,31.3,13.1,0000.0,0007.61,0003.20,0002.85
2021-08-24 12:41:00,,0827.8,4.99,0.00,29.6,28.9,00.0,38.7,31.3,13.1,0000.0,0007.44,0003.17,0002.83
2021-08-24 12:42:00,,0827.8,5.00,0.00,29.6,28.9,00.0,38.7,31.4,13.1,0000.0,0007.55,0003.18,0002.82
2021-08-24 12:43:00,,0827.8,5.01,0.00,29.6,28.9,00.0,38.7,31.3,13.5,0000.0,0007.61,0003.18,0002.82
2021-08-24 12:44:00,,0827.8,5.00,0.00,29.6,28.9,00.0,38.7,31.4,13.5,0000.0,0007.40,0003.20,0002.84
2021-08-24 12:45:00,,0827.8,4.99,0.00,29.6,28.9,00.0,38.7,31.3,13.5,0000.0,0007.39,0003.23,0002.84
2021-08-24 12:46:00,,0827.7,5.00,0.00,29.6,28.9,00.0,38.7,31.3,13.2,0000.0,0007.32,0003.21,0002.83
2021-08-24 12:47:00,,0827.7,5.00,0.00,29.5,28.9,00.0,38.7,31.3,13.1,0000.0,0007.16,0003.18,0002.81
2021-08-24 12:48:00,,0827.8,5.00,0.00,29.6,28.9,00.0,38.7,31.3,13.0,0000.0,0007.11,0003.16,0002.80
2021-08-24 12:49:00,,0827.8,5.01,0.00,29.6,28.9,00.0,38.7,31.3,13.0,0000.0,0005.83,0003.13,0002.79
2021-08-24 12:50:00,,0827.9,5.01,0.00,29.6,28.9,00.0,38.7,31.3,13.0,0000.0,0006.67,0003.16,0002.80
2021-08-24 12:51:00,,0827.9,5.00,0.00,29.6,28.9,00.0,38.7,31.3,12.9,0000.0,0007.04,0003.16,0002.81
2021-08-24 12:52:00,,0827.9,5.00,0.00,29.6,28.9,00.0,38.7,31.4,12.9,0000.0,0007.13,0003.18,0002.81
2021-08-24 12:53:00,,0827.9,5.00,0.00,29.6,28.9,00.0,38.8,31.4,13.2,0000.0,0005.76,0003.16,0002.80
2021-08-24 12:54:00,,0827.8,4.99,0.00,29.6,28.9,00.0,38.8,31.4,13.3,0000.0,0005.46,0003.14,0002.79
2021-08-24 12:55:00,,0827.9,5.01,0.00,29.6,28.9,00.0,38.8,31.4,14.1,0000.0,0005.26,0003.11,0002.79
2021-08-24 12:56:00,,0827.9,5.01,0.00,29.6,28.9,00.0,38.8,31.4,13.2,0000.0,0005.16,0003.08,0002.79
2021-08-24 12:57:00,,0827.8,5.01,0.00,29.6,28.9,00.0,38.8,31.4,13.4,0000.0,0005.14,0003.09,0002.80
2021-08-24 12:58:00,,0827.9,5.00,0.00,29.6,28.9,00.0,38.8,31.4,13.4,0000.0,0005.28,0003.11,0002.79
2021-08-24 12:59:00,,0828.0,5.01,0.00,29.6,28.9,00.0,38.8,31.3,13.6,0000.0,0005.29,0003.13,0002.79
